COSMOS 2251 DEB, 34553

Orbit data source: Space-Track

COSMOS 2251 DEB, 34553 is space debris in LEO originally from a launch on Wed, 16 Jun 1993 UTC launched from the Plesetsk Missile And Space Complex (PKMTR). The debris from Iridium 33, an American commercial communications satellite, has been tracked extensively since its accidental collision with the defunct Russian satellite Cosmos 2251 in 2009. This event, occurring at high speed in low Earth orbit (LEO), generated thousands of pieces of space debris, significantly increasing the risk of further collisions. The Iridium 33 debris cloud has impacted space traffic management and orbital debris mitigation strategies, making it a subject of ongoing study in space situational awareness.

Loading next visibility...
Identifier
34553, 1993-036UP
Orbit
LEO
Country
Flag of CISCIS
Related business
Manufacturer
Unknown
Mission
Spacecraft
Bus & Motor
Unknown
Mass
Unknown
Launch date (UTC)
1993-06-16 (33 years ago)
Launch vehicle
Unknown
Launch site
Plesetsk Missile And Space Complex (PKMTR)
Object type
Payload
Rocket body
Debris
Shape & HBR
Unknown shape, 0.1 m
Radar Cross Section
Small (<0.1 m²)

Expand to show TLE details & history
Last TLE update: 1 day ago

TLE from 1 day ago
0 COSMOS 2251 DEB
1 34553U 93036UP  25353.31872081  .00003497  00000-0  76906-3 0  9993
2 34553  74.0238 179.3741 0019139 256.1930 158.8027 14.57779976881928
Epoch: 2025-12-19T07:38Z
TLE epoch observation values (Epoch: 2025-12-19T07:38:57.477Z)
Latitude
52.12985°
Longitude
-2.04642°
Altitude
721.093 km
Speed
7.493 km/s
True Right ascension
13h 23m 25s
True Declination
51° 57' 44"
Sunlit
Object was in daylight at epoch
Visualization orbit readout
Latitude
Unknown
Longitude
Unknown
Altitude
Unknown
Speed
Unknown
Apparent Right ascension
Unknown
Apparent Declination
Unknown
Sunlit
N/A
Visualization observer readout
Local Sidereal Time
11:50:18
Azimuth
Unknown
Elevation
Unknown
Doppler factor
Unknown
Orbital elements
Apogee altitude
711.495 km
Perigee altitude
684.409 km
Semi-major axis
7,076.089 km
Eccentricity
0.00191
Inclination
74.0238°
RAAN
179.3741°
Arg. of periapsis
256.193°
True anomaly
158.88182°
Mean anomaly
158.8027°
Eccentric anomaly
158.84228°
Mean motion
3.64631 °/min
Orbital period
98.73 mins
BSTAR
0.00076906
Loading maneuver chart data...
Computing Atmospheric mass density...

Documentation

Showing up to 5 results
|